Location: ?????????
(54.7630°N, 39.4991°E)
Time: 17:33:39
(UTC+00:00)

Cosmos 1943 - Pass Details

Date: 14 April 2026
Orbit: 832 x 847 km, 71.0° (Epoch: 16 May)

Event Time Altitude Azimuth Distance (km) Brightness Sun altitude
Exits shadow 20:52:23 70° 173° (S) 903 3.0 -25.3°
Maximum altitude 20:52:58 78° 120° (ESE) 872 3.1 -25.3°
Drops below altitude 10° 20:58:39 10° 35° (NE) 2,477 6.2 -25.4°
Sets 21:01:06 0° 34° (NE) 3,414 7.1 -25.4°
